Overview Statistics Trail Chart Weather Telemetry Raw packets
 

This is the latest recevied weather packets stored in our database for station/object OM6ACB-6. If no packets are shown the sender has not sent any weather packets the latest 10 day(s).

<< 40 41 42 43 44 45 46 >>
Time Temp. Humidity Pressure Rain* Wind** Luminosity Snow
1788045095 11.11° C 59% 1020.2 hPa 0 mm - - -
1788044495 10° C 55% 1020.1 hPa 0 mm - - -
1788043894 10.56° C 54% 1020.2 hPa 0 mm - - -
1788043294 11.11° C 53% 1020.1 hPa 0 mm - - -
1788042694 11.11° C 50% 1020.1 hPa 0 mm - - -
1788042094 11.67° C 49% 1020.1 hPa 0 mm - - -
1788041493 11.67° C 48% 1020.2 hPa 0 mm - - -
1788040893 11.67° C 44% 1020.2 hPa 0 mm - - -
1788040293 11.67° C 43% 1020.3 hPa 0 mm - - -
1788039692 11.67° C 42% 1020.4 hPa 0 mm - - -
1788039092 11.67° C 39% 1020.4 hPa 0 mm - - -
1788038497 12.22° C 41% 1020.4 hPa 0 mm - - -
1788037891 12.22° C 38% 1020.4 hPa 0 mm - - -
1788037291 12.22° C 36% 1020.3 hPa 0 mm - - -
1788036691 12.78° C 35% 1020.3 hPa 0 mm - - -
1788036090 12.78° C 33% 1020.3 hPa 0 mm - - -
1788035490 12.78° C 33% 1020.3 hPa 0 mm - - -
1788034890 13.33° C 29% 1020.2 hPa 0 mm - - -
1788034290 13.33° C 27% 1020.2 hPa 0 mm - - -
1788033689 13.89° C 27% 1020.2 hPa 0 mm - - -
1788033089 13.89° C 25% 1020.2 hPa 0 mm - - -
1788032497 15° C 25% 1020.3 hPa 0 mm - - -
1788031889 15° C 25% 1020.2 hPa 0 mm - - -
1788031288 14.44° C 25% 1020.2 hPa 0 mm - - -
1788030688 15° C 25% 1020.2 hPa 0 mm - - -

* Rain latest hour (hover to see other rain measurements)
** Current wind speed in m/s (hover to see current wind gust speed)